[[{"header":{"parameterUnit":"m.s-1","parameterCategory":1,"la1":30.2991,"la2":30.254,"lo1":-89.0895,"lo2":-89.0444,"dy":0.0017,"dx":0.0017,"nx":28,"ny":28,"refTime":"2024-09-02T21:00:00:Z","depth":0,"parameterNumber":2,"parameterNumberName":"U-component_of_WINDS"},"data":[0,0,0,0,0,0,0,0,0,0,0,0,0,0,0,0,0,0,0,0,0,0,0,0,0,0,0,0,0,0,0,0,0,0,0,0,0,0,0,0,0,0,0,0,0,0,0,0,0,0,0,0,0,0,0,0,0,0,-6.5194,-6.5195,0,-6.5247,-6.5247,-6.5248,-6.5118,-6.5114,-6.5109,-6.5106,-6.5157,-6.5162,-6.5168,0,0,0,0,0,0,0,0,0,0,0,0,0,-6.4978,-6.4983,-6.5194,-6.5195,-6.5195,-6.5247,-6.5247,-6.5248,-6.5118,-6.5113,-6.5108,-6.5104,-6.5156,-6.5162,-6.5168,0,0,0,0,0,0,0,0,0,0,0,0,0,-6.5055,-6.4984,-6.5194,-6.5137,-6.5132,-6.5246,-6.5247,-6.5248,-6.5119,-6.5113,-6.5107,-6.5101,-6.5154,-6.5161,-6.5169,-6.534,0,0,-6.5193,-6.5196,0,0,0,0,0,0,0,0,-6.5051,-6.5064,-6.5145,-6.5141,-6.5136,-6.5169,-6.519,-6.5279,-6.5121,-6.5124,-6.5105,-6.5098,-6.5166,-6.5173,-6.5196,-6.5342,-6.5345,-6.5193,-6.5198,-6.5201,-6.5204,0,0,0,0,0,0,0,-6.5046,-6.506,-6.5215,-6.5146,-6.5141,-6.5108,-6.5112,-6.5206,-6.5179,-6.5124,-6.5114,-6.5122,-6.5163,-6.5189,-6.5196,-6.5345,-6.5193,-6.52,-6.5205,-6.5208,-6.5631,-6.5638,0,0,0,0,0,0,-6.5048,-6.5057,-6.5213,-6.5216,-6.5078,-6.5117,-6.5121,-6.5165,-6.5178,-6.5174,-6.5128,-6.5116,-6.5178,-6.5187,-6.5197,-6.5395,-6.5201,-6.5209,-6.5213,-6.5625,-6.5633,-6.564,0,0,0,0,0,0,-6.5044,-6.5064,-6.5211,-6.5134,-6.515,-6.5127,-6.5177,-6.5169,-6.5195,-6.5181,-6.5175,-6.5159,-6.5174,-6.5186,-6.5305,-6.5395,-6.5212,-6.5219,-6.5617,-6.5627,-6.5636,-6.5795,0,0,0,0,0,0,-6.5039,-6.5063,-6.5129,-6.5137,-6.5155,-6.5319,-6.5183,-6.5175,-6.5209,-6.5194,-6.5209,-6.5205,-6.517,-6.5294,-6.5313,-6.5403,-6.5225,-6.5609,-6.5622,-6.5633,-6.5781,-6.5809,-6.5833,0,0,0,0,0,-6.5031,-6.5171,-6.5133,-6.5152,-6.5237,-6.5325,-6.5335,-6.5292,-6.5217,-6.5282,-6.5272,-6.5205,-6.5384,-6.5307,-6.5327,-6.5421,-6.5603,-6.5618,-6.5632,-6.577,-6.5804,-6.5832,0,0,0,0,0,0,-6.5174,-6.5171,-6.5128,-6.5275,-6.5301,-6.5302,-6.5383,-6.5329,-6.5376,-6.5361,-6.5305,-6.5309,-6.5437,-6.5441,-6.5357,-6.5586,-6.548,-6.55,-6.5578,-6.561,-6.5635,-6.563,-6.5232,0,0,0,0,0,-6.5223,-6.5295,-6.5289,-6.5419,-6.5434,-6.5407,-6.5444,-6.5408,-6.5432,-6.5442,-6.5442,-6.5467,-6.5528,-6.557,-6.5626,-6.5783,-6.5782,-6.5857,-6.5883,-6.5904,-6.592,-6.6,-6.6032,-6.5688,-6.5688,-6.5688,0,0,-6.5324,-6.5331,-6.538,-6.5448,-6.5464,-6.5538,-6.5417,-6.5502,-6.5556,-6.5455,-6.5566,-6.5567,-6.5591,-6.5729,-6.5789,-6.5736,-6.6015,-6.5922,-6.5939,-6.5944,-6.6018,-6.6051,-6.608,-6.5698,-6.5697,-6.5695,0,0,-6.5545,-6.556,-6.5668,-6.5687,-6.5712,-6.5693,-6.5719,-6.5729,-6.5725,-6.5836,-6.5761,-6.5824,-6.5932,-6.5951,-6.5976,-6.6204,-6.6142,-6.6224,-6.6356,-6.6435,-6.6462,-6.6485,-6.6563,-6.6592,-6.6241,-6.6242,-6.6242,0,-6.5667,-6.5777,-6.5731,-6.582,-6.585,-6.5764,-6.5871,-6.5892,-6.5934,-6.5957,-6.5897,-6.6029,-6.6039,-6.6178,-6.6234,-6.6258,-6.6284,-6.622,-6.6462,-6.6485,-6.6506,-6.658,-6.661,-6.6251,-6.625,-6.6249,-6.6248,0,-6.5924,-6.6001,-6.6086,-6.6129,-6.6169,-6.6268,-6.6235,-6.6281,-6.6243,-6.623,-6.6342,-6.6352,-6.6407,-6.6438,-6.6402,-6.6572,-6.6537,-6.6472,-6.6363,-6.6549,-6.6617,-6.6645,-6.6265,-6.6261,-6.6258,-6.6256,0,0,-6.6234,-6.625,-6.6282,-6.6299,-6.6321,-6.6379,-6.6473,-6.6527,-6.6566,-6.6599,-6.6674,-6.6768,-6.6705,-6.6733,-6.6698,-6.6768,-6.6943,-6.6692,-6.6691,-6.6735,-6.7127,-6.7174,-6.7208,-6.6904,-6.691,-6.6914,-6.7124,0,-6.645,-6.6611,-6.6571,-6.673,-6.6799,-6.6718,-6.6799,-6.6821,-6.6811,-6.6868,-6.6857,-6.6922,-6.6837,-6.6853,-6.6918,-6.6908,-6.7021,-6.6893,-6.6971,-6.6974,-6.6963,-6.7244,-6.7294,-6.7491,-6.715,-6.7155,-6.7158,0,-6.6722,-6.6764,-6.6931,-6.6939,-6.6966,-6.704,-6.7085,-6.7141,-6.7163,-6.7151,-6.7182,-6.7133,-6.7223,-6.7118,-6.724,-6.7154,-6.7184,-6.7184,-6.7191,-6.7193,-6.7075,-6.725,-6.7554,-6.7582,-6.72,-6.7197,-6.7194,0,-6.6927,-6.7026,-6.7137,-6.7155,-6.7169,-6.7222,-6.723,-6.7246,-6.728,-6.732,-6.7341,-6.7391,-6.7418,-6.7457,-6.7422,-6.7349,-6.7549,-6.7441,-6.7539,-6.754,-6.7581,-6.7578,-6.789,-6.7608,-6.7608,-6.7607,-6.7607,0,-6.7169,-6.7273,-6.7229,-6.7297,-6.741,-6.7364,-6.7476,-6.7475,-6.749,-6.7555,-6.7489,-6.7551,-6.7503,-6.7561,-6.7535,-6.7638,-6.7652,-6.7642,-6.7633,-6.7646,-6.7646,-6.7661,-6.7645,-6.7615,-6.7613,-6.7612,-6.7611,0,-6.7415,-6.7391,-6.7506,-6.7509,-6.7512,-6.7595,-6.7597,-6.7659,-6.7645,-6.7728,-6.7745,-6.7722,-6.7786,-6.7757,-6.7824,-6.7806,-6.7938,-6.7913,-6.7931,-6.7922,-6.802,-6.8009,-6.8349,-6.8389,-6.8086,-6.8089,-6.8091,0,-6.7569,-6.7647,-6.7659,-6.7697,-6.771,-6.7774,-6.7808,-6.7766,-6.7804,-6.7835,-6.7893,-6.7952,-6.7996,-6.8102,-6.8091,-6.8142,-6.8114,-6.823,-6.8121,-6.813,-6.8111,-6.8105,-6.811,-6.825,-6.8254,-6.8257,-6.8259,0,-6.7844,-6.7828,-6.788,-6.7929,-6.7971,-6.8008,-6.8038,-6.8073,-6.8032,-6.8078,-6.8143,-6.8177,-6.8246,-6.8304,-6.8348,-6.8355,-6.8299,-6.8294,-6.8318,-6.833,-6.8335,-6.8329,-6.7985,-6.8285,-6.8283,-6.8281,-6.8279,-6.8278,-6.8046,-6.8109,-6.8127,-6.8187,-6.8205,-6.8235,-6.8292,-6.8285,-6.8339,-6.8391,-6.8364,-6.8438,-6.8457,-6.851,-6.8525,-6.8581,-6.8535,-6.8572,-6.858,-6.8589,-6.8599,-6.833,-6.859,-6.8589,-6.8588,-6.8588,-6.8587,0,-6.8313,-6.832,-6.8376,-6.842,-6.8467,-6.8413,-6.8443,-6.8485,-6.8552,-6.8574,-6.8619,-6.8692,-6.8748,-6.8742,-6.8792,-6.8839,-6.8815,-6.8853,-6.8847,-6.8849,-6.864,-6.8612,-6.8872,-6.8872,-6.8872,-6.8872,-6.8872,-6.8872,-6.8457,-6.8561,-6.8547,-6.8658,-6.8665,-6.8737,-6.8759,-6.8785,-6.8802,-6.8887,-6.8933,-6.8929,-6.8939,-6.8989,-6.9038,-6.9034,-6.9054,-6.9101,-6.9088,-6.8892,-6.8864,-6.8837,-6.881,-6.9107,-6.9107,-6.9291,-6.9292,-6.9294]},{"header":{"parameterUnit":"m.s-1","parameterCategory":1,"la1":30.2991,"la2":30.254,"lo1":-89.0895,"lo2":-89.0444,"dy":0.0017,"dx":0.0017,"nx":28,"ny":28,"refTime":"2024-09-02T21:00:00:Z","depth":0,"parameterNumber":3,"parameterNumberName":"V-component_of_WINDS"},"data":[0,0,0,0,0,0,0,0,0,0,0,0,0,0,0,0,0,0,0,0,0,0,0,0,0,0,0,0,0,0,0,0,0,0,0,0,0,0,0,0,0,0,0,0,0,0,0,0,0,0,0,0,0,0,0,0,0,0,-0.612,-0.612,0,-0.6105,-0.6105,-0.6105,-0.6125,-0.6126,-0.6127,-0.6128,-0.6111,-0.611,-0.6109,0,0,0,0,0,0,0,0,0,0,0,0,0,-0.6164,-0.6163,-0.612,-0.612,-0.612,-0.6105,-0.6105,-0.6105,-0.6125,-0.6126,-0.6127,-0.6128,-0.6111,-0.611,-0.6109,0,0,0,0,0,0,0,0,0,0,0,0,0,-0.6146,-0.6162,-0.612,-0.6128,-0.6129,-0.6105,-0.6105,-0.6105,-0.6125,-0.6126,-0.6127,-0.6128,-0.6112,-0.611,-0.6108,-0.6076,0,0,-0.6103,-0.6102,0,0,0,0,0,0,0,0,-0.6147,-0.6145,-0.6127,-0.6128,-0.6128,-0.6118,-0.6114,-0.6095,-0.6125,-0.6126,-0.6128,-0.6129,-0.6112,-0.6111,-0.6105,-0.6075,-0.6074,-0.6103,-0.6102,-0.6101,-0.6101,0,0,0,0,0,0,0,-0.6148,-0.6145,-0.6114,-0.6127,-0.6128,-0.6132,-0.613,-0.6111,-0.6113,-0.6126,-0.6128,-0.6126,-0.6113,-0.6107,-0.6105,-0.6074,-0.6103,-0.6102,-0.6101,-0.61,-0.6012,-0.6011,0,0,0,0,0,0,-0.6149,-0.6146,-0.6115,-0.6114,-0.6141,-0.613,-0.6129,-0.612,-0.6114,-0.6114,-0.6125,-0.6127,-0.6109,-0.6107,-0.6105,-0.6063,-0.6101,-0.61,-0.6099,-0.6013,-0.6012,-0.601,0,0,0,0,0,0,-0.615,-0.6146,-0.6115,-0.613,-0.6127,-0.6128,-0.6119,-0.612,-0.6114,-0.6113,-0.6113,-0.6119,-0.611,-0.6107,-0.6082,-0.6063,-0.6099,-0.6097,-0.6015,-0.6013,-0.6011,-0.5981,0,0,0,0,0,0,-0.6151,-0.6146,-0.6135,-0.613,-0.6126,-0.6094,-0.6118,-0.6118,-0.6111,-0.6113,-0.6107,-0.6107,-0.6111,-0.6084,-0.608,-0.6061,-0.6096,-0.6016,-0.6014,-0.6012,-0.5984,-0.5978,-0.5973,0,0,0,0,0,-0.6152,-0.6127,-0.6134,-0.613,-0.6112,-0.6093,-0.609,-0.6096,-0.6109,-0.6097,-0.6096,-0.6107,-0.6066,-0.6082,-0.6077,-0.6057,-0.6018,-0.6015,-0.6012,-0.5986,-0.5979,-0.5974,0,0,0,0,0,0,-0.613,-0.6127,-0.6134,-0.6107,-0.61,-0.6096,-0.6081,-0.6089,-0.6078,-0.608,-0.6088,-0.6086,-0.6058,-0.6056,-0.6073,-0.6023,-0.6044,-0.604,-0.6026,-0.6019,-0.6014,-0.6014,-0.6095,0,0,0,0,0,-0.6122,-0.6107,-0.6105,-0.6081,-0.6077,-0.608,-0.6072,-0.6076,-0.6069,-0.6066,-0.6063,-0.6055,-0.604,-0.603,-0.6017,-0.5984,-0.5981,-0.5968,-0.5963,-0.5959,-0.5954,-0.5933,-0.5926,-0.6,-0.6,-0.6001,0,0,-0.6105,-0.6101,-0.6092,-0.6077,-0.6072,-0.6055,-0.6077,-0.6059,-0.6046,-0.6063,-0.6038,-0.6036,-0.6027,-0.5997,-0.5984,-0.5994,-0.5933,-0.5955,-0.5952,-0.5949,-0.5929,-0.5922,-0.5916,-0.5998,-0.5999,-0.5999,0,0,-0.6064,-0.6062,-0.604,-0.6034,-0.6026,-0.6027,-0.6022,-0.6016,-0.6015,-0.599,-0.6002,-0.5986,-0.5961,-0.5953,-0.5946,-0.59,-0.5909,-0.5896,-0.5868,-0.5848,-0.5842,-0.5836,-0.5817,-0.581,-0.5892,-0.5892,-0.5892,0,-0.6044,-0.602,-0.6027,-0.6008,-0.5999,-0.6014,-0.599,-0.5985,-0.5972,-0.5965,-0.5977,-0.5944,-0.5939,-0.5906,-0.5894,-0.5889,-0.5881,-0.5896,-0.5842,-0.5837,-0.5832,-0.5813,-0.5806,-0.589,-0.589,-0.5891,-0.5891,0,-0.5993,-0.5976,-0.596,-0.5946,-0.5937,-0.5915,-0.5918,-0.5907,-0.5912,-0.5911,-0.5884,-0.5879,-0.5863,-0.5856,-0.5862,-0.5822,-0.5828,-0.5841,-0.5862,-0.5823,-0.5805,-0.5798,-0.5888,-0.5888,-0.5889,-0.5889,0,0,-0.5938,-0.5928,-0.5922,-0.5914,-0.5906,-0.5892,-0.587,-0.5854,-0.5843,-0.5834,-0.5814,-0.5791,-0.5802,-0.5794,-0.5798,-0.5781,-0.574,-0.5795,-0.5795,-0.5782,-0.5692,-0.568,-0.5672,-0.5746,-0.5745,-0.5744,-0.5691,0,-0.5895,-0.5858,-0.5863,-0.5826,-0.5808,-0.5821,-0.5802,-0.5793,-0.5792,-0.5776,-0.5774,-0.5756,-0.5774,-0.5768,-0.5752,-0.5748,-0.5721,-0.5753,-0.5725,-0.5724,-0.5724,-0.5663,-0.5651,-0.5601,-0.5685,-0.5684,-0.5683,0,-0.584,-0.5828,-0.5789,-0.578,-0.5773,-0.5755,-0.5739,-0.5725,-0.5715,-0.5714,-0.5704,-0.5711,-0.5687,-0.5709,-0.5674,-0.5695,-0.5685,-0.5681,-0.5679,-0.5675,-0.5699,-0.5653,-0.5586,-0.5577,-0.5673,-0.5673,-0.5674,0,-0.5799,-0.5773,-0.5746,-0.574,-0.573,-0.5716,-0.5711,-0.5702,-0.5691,-0.5677,-0.567,-0.5653,-0.5644,-0.563,-0.5631,-0.5648,-0.5594,-0.5618,-0.5591,-0.5591,-0.5577,-0.5578,-0.5504,-0.5576,-0.5576,-0.5576,-0.5576,0,-0.5749,-0.5724,-0.5727,-0.5709,-0.5681,-0.5686,-0.5657,-0.5654,-0.5645,-0.5626,-0.5637,-0.5619,-0.5623,-0.5604,-0.5606,-0.5574,-0.5571,-0.5568,-0.5568,-0.5565,-0.5565,-0.5556,-0.5558,-0.5574,-0.5574,-0.5575,-0.5575,0,-0.5698,-0.5699,-0.5669,-0.5662,-0.5659,-0.5638,-0.563,-0.5613,-0.5612,-0.5587,-0.5582,-0.558,-0.5558,-0.5559,-0.5534,-0.5535,-0.5495,-0.5501,-0.5498,-0.5498,-0.547,-0.5471,-0.5385,-0.5372,-0.5456,-0.5455,-0.5454,0,-0.5664,-0.5645,-0.5634,-0.5622,-0.5616,-0.5597,-0.5585,-0.559,-0.5577,-0.5562,-0.5546,-0.5525,-0.5508,-0.5472,-0.5467,-0.5448,-0.5451,-0.5422,-0.5448,-0.5444,-0.5446,-0.5445,-0.5442,-0.5416,-0.5415,-0.5414,-0.5414,0,-0.5603,-0.5604,-0.5587,-0.5569,-0.5555,-0.5542,-0.5529,-0.5519,-0.5521,-0.5506,-0.5483,-0.547,-0.5444,-0.5422,-0.5402,-0.5396,-0.5403,-0.5406,-0.5398,-0.5393,-0.5391,-0.5388,-0.548,-0.5407,-0.5408,-0.5408,-0.5409,-0.5409,-0.5557,-0.5539,-0.5528,-0.5508,-0.5499,-0.5486,-0.5469,-0.5465,-0.5446,-0.5425,-0.5429,-0.5402,-0.539,-0.5364,-0.5356,-0.5334,-0.5344,-0.5333,-0.533,-0.5326,-0.5321,-0.5397,-0.5331,-0.5331,-0.5331,-0.5332,-0.5332,0,-0.5493,-0.5486,-0.5468,-0.545,-0.5433,-0.5443,-0.5429,-0.5414,-0.5391,-0.5379,-0.5362,-0.5334,-0.5311,-0.5305,-0.5283,-0.5266,-0.5269,-0.526,-0.5259,-0.5257,-0.5316,-0.5323,-0.5257,-0.5257,-0.5258,-0.5258,-0.5258,-0.5258,-0.5458,-0.5427,-0.5426,-0.5389,-0.5383,-0.5357,-0.5348,-0.5335,-0.5325,-0.5293,-0.5275,-0.5271,-0.5259,-0.5236,-0.5215,-0.5214,-0.5203,-0.5192,-0.5191,-0.5246,-0.5253,-0.526,-0.5267,-0.519,-0.519,-0.5133,-0.5133,-0.5132]}]]